{"data":{"norad_id":51883,"intl_designator":"2022-022AH","name":"STARLINK-3576","alt_names":[],"object_type":"PAYLOAD","status":"ACTIVE","operator":null,"country":"US","launch_date":"2022-03-03","launch_site_code":"AFETR","launch_vehicle":null,"mission":null,"orbit_class":"UNKNOWN","rcs_meters":null,"size_class":null,"mass_kg":null,"dimensions":null,"purposes":["comms"],"wikipedia_slug":null,"has_3d_model":false,"image_url":null,"decayed_at":null,"tle_current":{"epoch":"2026-05-25T00:38:48.379776Z","epoch_age_seconds":73064,"freshness":"FRESH","line1":"1 51883U 22022AH  26145.02694884 -.00001502  00000+0 -76285-4 0  9993","line2":"2 51883  53.2132  16.6106 0001185  72.9310 287.1812 15.08847068234768","mean_motion":15.08847068,"eccentricity":0.0001185,"inclination_deg":53.2132,"raan_deg":16.6106,"arg_perigee_deg":72.931,"mean_anomaly_deg":287.1812,"bstar":-7.6285e-5,"rev_number":23476,"period_min":95.437107612817,"perigee_km":538.90201873401,"apogee_km":540.54155126606,"semimajor_km":6917.858785,"source":"CELESTRAK","updated_at":"2026-05-25T13:38:16.986680Z"}}}